Weather History for Surat Thani, Thailand

Change the Weather History Date:

Wednesday, August 7, 2013

  Actual Average Record
Temperature  
Mean Temperature 84 °F -  
Max Temperature 95 °F 90 °F - ()
Min Temperature 73 °F 74 °F - ()
Cooling Degree Days 19    
Growing Degree Days 34 (Base 50)    
Moisture  
Dew Point 76 °F    
Average Humidity 82    
Maximum Humidity 100    
Minimum Humidity 51    
Precipitation  
Precipitation 0.01 in 0.20 in - ()
Sea Level Pressure  
Sea Level Pressure 29.78 in    
Wind  
Wind Speed 4 mph ()    
Max Wind Speed 15 mph    
Max Gust Speed -    
Visibility 5.2 miles    
Events Rain    
T = Trace of Precipitation, MM = Missing Value Source: Averaged Metar Reports

Daily Weather History Graph

Daily Weather History Graph

Search for Another Location

Airport:

Trip Planner

Search our weather history database for the weather conditions in past years. The results will help you decide how hot, cold, wet, or windy it might be!

Date:

Astronomy

Aug. 07, 2013 Rise Set
Actual Time 6:14 AM ICT 6:43 PM ICT
Civil Twilight 5:52 AM ICT 7:05 PM ICT
Nautical Twilight 5:27 AM ICT 7:30 PM ICT
Astronomical Twilight 5:01 AM ICT 7:56 PM ICT
Moon 6:18 AM ICT (8/7) 6:54 PM ICT (8/7)
Length of Visible Light 13h 12m
Length of Day
12h 28m
New Moon, 0% of the Moon is Illuminated
Aug 7
New Moon
Aug 14
First Quarter
Aug 21
Full
Aug 28
Last Quarter
Sep 5
New

Hourly Weather History & Observations

Time (ICT) Temp. Heat Index Dew Point Humidity Pressure Visibility Wind Dir Wind Speed Gust Speed Precip Events Conditions
1:00 AM 76 °F - 74 °F 91% 29.82 in 4 mi Calm Calm - -   Mist
6:00 AM 73.4 °F - 73.4 °F 100% 29.77 in 3.7 mi South 2.3 mph - N/A   Scattered Clouds
7:00 AM 74 °F - 73 °F 96% 29.83 in 5 mi Calm Calm - -   Mist
7:00 AM 73.4 °F - 73.4 °F 100% 29.77 in 5.0 mi Calm Calm - N/A   Scattered Clouds
8:00 AM 77.0 °F - 77.0 °F 100% 29.80 in 6.2 mi SSW 5.8 mph - N/A   Partly Cloudy
9:00 AM 80.6 °F 87.1 °F 77.0 °F 89% 29.80 in 6.2 mi SSW 6.9 mph - N/A   Scattered Clouds
10:00 AM 86.0 °F 96.9 °F 77.0 °F 74% 29.80 in 6.2 mi SSW 6.9 mph - N/A   Mostly Cloudy
11:00 AM 87.8 °F 97.6 °F 75.2 °F 66% 29.80 in 6.2 mi SSW 8.1 mph - N/A   Mostly Cloudy
12:00 PM 89.6 °F 98.2 °F 73.4 °F 59% 29.77 in 6.2 mi SSW 9.2 mph - N/A   Mostly Cloudy
1:00 PM 92 °F - 76 °F 51% 29.78 in 6 mi WSW 5.8 mph - -   Scattered Clouds
1:00 PM 89.6 °F 99.8 °F 75.2 °F 62% 29.77 in 6.2 mi SW 5.8 mph - N/A   Mostly Cloudy
2:00 PM 91.4 °F 102.5 °F 75.2 °F 59% 29.74 in 6.2 mi WSW 9.2 mph - N/A   Mostly Cloudy
3:00 PM 91.4 °F 100.1 °F 73.4 °F 55% 29.71 in 5.0 mi SW 11.5 mph - N/A   Mostly Cloudy
4:00 PM 86.0 °F 93.4 °F 73.4 °F 66% 29.71 in 4.3 mi WSW 15.0 mph - N/A Rain Light Rain
5:00 PM 86.0 °F 96.9 °F 77.0 °F 74% 29.71 in 5.0 mi SW 8.1 mph - N/A   Mostly Cloudy
6:00 PM 82.4 °F 92.4 °F 78.8 °F 89% 29.74 in 5.0 mi South 5.8 mph - N/A   Mostly Cloudy
7:00 PM 82 °F - 77 °F 81% 29.77 in 5 mi Calm Calm - -   Mist
7:00 PM 80.6 °F 88.1 °F 78.8 °F 94% 29.74 in 5.0 mi South 2.3 mph - N/A   Scattered Clouds
8:00 PM 78.8 °F - 78.8 °F 100% 29.77 in 5.0 mi SSW 2.3 mph - N/A   Mostly Cloudy
9:00 PM 78.8 °F - 78.8 °F 100% 29.80 in 4.3 mi SSW 3.5 mph - N/A   Scattered Clouds
10:00 PM 77.0 °F - 77.0 °F 100% 29.83 in 4.3 mi SSE 4.6 mph - N/A   Scattered Clouds
11:00 PM 77.0 °F - 77.0 °F 100% 29.83 in 4.3 mi ESE 3.5 mph - N/A   Scattered Clouds